EW1296 Weather Reports


Display with metric or nautical units.
time (UTC)temp
F
wind
direction
speed
MPH
gust
MPH
rain 1hr
in
rain 24hr
in
rain mn
in
humidity
%
barometer
mb
20260903000017 70 113 4.0 10.0 0.00 0.01 0.01 88 1018.8
20260902235516 70 113 4.0 9.0 0.00 0.01 0.01 87 1018.7
20260902235037 70 113 4.0 11.0 0.00 0.02 0.01 87 1018.9
20260902234516 70 113 4.0 7.0 0.00 0.02 0.01 87 1018.5
20260902233516 71 113 3.0 6.0 0.00 0.03 0.01 87 1018.5
20260902233016 71 113 5.0 10.0 0.00 0.03 0.01 87 1018.6
20260902232516 71 90 3.0 9.0 0.00 0.04 0.01 87 1018.5
20260902232016 71 113 4.0 9.0 0.00 0.04 0.01 87 1018.4
20260902231516 71 113 4.0 10.0 0.00 0.04 0.01 87 1018.4
20260902231016 71 113 6.0 12.0 0.00 0.04 0.01 87 1018.5
20260902230517 71 113 6.0 12.0 0.00 0.04 0.01 86 1018.5
20260902230016 71 113 5.0 11.0 0.00 0.05 0.01 86 1018.6
20260902225516 71 113 5.0 10.0 0.00 0.05 0.01 86 1018.7
20260902225016 71 113 5.0 10.0 0.00 0.05 0.01 86 1018.8
20260902224516 71 113 3.0 6.0 0.00 0.05 0.01 86 1019.1
20260902224016 71 113 4.0 8.0 0.00 0.05 0.01 86 1019.1
20260902223557 71 113 4.0 8.0 0.00 0.05 0.01 86 1019.1
20260902223016 71 113 4.0 10.0 0.00 0.08 0.01 86 1019.2
20260902222517 71 113 5.0 10.0 0.00 0.16 0.01 86 1019.2
20260902222037 71 113 6.0 12.0 0.00 0.30 0.01 85 1019.3
20260902221517 71 113 6.0 11.0 0.00 0.33 0.01 85 1019.2
20260902221016 71 113 4.0 9.0 0.00 0.34 0.01 86 1019.4
20260902220516 71 113 4.0 8.0 0.00 0.34 0.01 86 1019.6
20260902220016 71 113 3.0 7.0 0.00 0.34 0.01 86 1019.7
20260902215516 71 113 5.0 9.0 0.00 0.34 0.01 86 1019.6
20260902215016 71 113 4.0 10.0 0.00 0.34 0.01 86 1019.6
20260902214517 71 113 5.0 9.0 0.00 0.34 0.01 86 1019.7
20260902214016 71 113 5.0 9.0 0.00 0.34 0.01 86 1019.8
20260902213516 71 113 6.0 11.0 0.00 0.34 0.01 86 1019.8
20260902213017 71 113 5.0 10.0 0.00 0.34 0.01 86 1019.7
20260902212516 71 113 4.0 7.0 0.00 0.34 0.01 86 1019.6
20260902212058 71 135 3.0 6.0 0.00 0.34 0.01 86 1019.6
20260902211515 71 113 4.0 8.0 0.00 0.34 0.01 86 1019.5
20260902211037 71 113 5.0 10.0 0.00 0.34 0.01 86 1019.5
20260902210516 71 113 4.0 8.0 0.00 0.34 0.01 86 1019.5
20260902210016 71 113 3.0 8.0 0.00 0.34 0.01 87 1019.4
20260902205535 71 113 6.0 11.0 0.00 0.34 0.01 87 1019.2
20260902205016 71 113 6.0 13.0 0.00 0.34 0.01 87 1019.2
20260902204516 71 113 6.0 12.0 0.00 0.34 0.01 87 1019.3
20260902204016 71 113 6.0 11.0 0.00 0.34 0.01 87 1019.5
20260902203517 71 135 4.0 9.0 0.00 0.34 0.01 88 1019.5
20260902203015 71 135 4.0 8.0 0.00 0.34 0.01 88 1019.4
20260902202515 71 113 4.0 8.0 0.00 0.34 0.01 88 1019.5
20260902202016 71 113 4.0 9.0 0.00 0.34 0.01 88 1019.6
20260902201536 71 113 4.0 8.0 0.00 0.34 0.01 88 1019.6
20260902201016 71 113 5.0 10.0 0.00 0.34 0.01 88 1019.6
20260902200516 71 113 3.0 8.0 0.00 0.34 0.01 88 1019.6
20260902200015 71 135 4.0 9.0 0.00 0.34 0.01 88 1019.5
20260902195516 71 135 3.0 10.0 0.01 0.34 0.01 87 1019.7
20260902195016 71 135 4.0 9.0 0.01 0.34 0.01 87 1019.9
20260902194515 71 113 4.0 8.0 0.01 0.34 0.01 87 1020.1
20260902194016 71 113 3.0 7.0 0.01 0.34 0.01 86 1020.1
20260902193516 71 113 4.0 7.0 0.01 0.34 0.01 86 1020.1
20260902193015 71 113 5.0 9.0 0.01 0.34 0.01 85 1019.9
20260902192517 72 113 4.0 7.0 0.01 0.34 0.01 85 1019.9
20260902192016 72 135 3.0 7.0 0.01 0.34 0.01 85 1019.9
20260902191515 72 113 3.0 6.0 0.01 0.34 0.01 84 1020.0
20260902191015 72 135 3.0 9.0 0.01 0.34 0.01 83 1020.0
20260902190515 72 113 2.0 4.0 0.01 0.34 0.01 82 1020.0
20260902190016 73 135 3.0 7.0 0.01 0.34 0.01 81 1020.0
20260902185515 73 113 5.0 12.0 0.00 0.33 0.00 80 1019.9
20260902185015 73 113 4.0 9.0 0.00 0.33 0.00 79 1019.7
20260902184556 73 113 6.0 11.0 0.00 0.33 0.00 79 1019.7
20260902184015 73 113 5.0 9.0 0.00 0.33 0.00 78 1019.7
20260902183517 73 113 6.0 12.0 0.00 0.33 0.00 78 1019.7
20260902183015 73 113 5.0 10.0 0.00 0.33 0.00 77 1019.8
20260902182515 73 135 5.0 11.0 0.00 0.33 0.00 77 1019.8
20260902182016 74 135 5.0 10.0 0.00 0.33 0.00 76 1019.9
20260902181515 74 135 4.0 8.0 0.00 0.33 0.00 76 1020.0
20260902181015 74 113 5.0 9.0 0.00 0.33 0.00 76 1019.9
20260902180516 74 113 5.0 13.0 0.00 0.33 0.00 76 1019.9
20260902180016 74 135 5.0 13.0 0.00 0.33 0.00 76 1020.0
20260902175516 74 135 5.0 11.0 0.00 0.33 0.00 76 1020.1
20260902175035 74 135 5.0 9.0 0.00 0.33 0.00 75 1020.1
20260902174516 74 113 6.0 11.0 0.00 0.33 0.00 75 1020.1
20260902174015 74 113 5.0 10.0 0.00 0.33 0.00 74 1020.2
20260902173515 74 113 4.0 10.0 0.00 0.33 0.00 74 1020.2
20260902173015 74 113 6.0 10.0 0.00 0.33 0.00 74 1020.2
20260902172516 74 113 6.0 10.0 0.00 0.33 0.00 74 1020.2
20260902172015 74 113 4.0 9.0 0.00 0.33 0.00 74 1020.3
20260902171556 74 113 5.0 9.0 0.00 0.33 0.00 75 1020.2
20260902171018 74 135 4.0 10.0 0.00 0.33 0.00 75 1020.3
20260902170557 74 113 5.0 9.0 0.00 0.33 0.00 75 1020.4
20260902170017 74 113 4.0 8.0 0.00 0.33 0.00 75 1020.5
20260902165517 74 135 2.0 4.0 0.00 0.33 0.00 75 1020.7
20260902165017 74 113 3.0 6.0 0.00 0.33 0.00 75 1020.7
20260902164517 74 113 3.0 8.0 0.00 0.33 0.00 75 1020.6
20260902164015 74 113 3.0 7.0 0.00 0.33 0.00 74 1020.7
20260902163517 74 90 3.0 9.0 0.00 0.33 0.00 74 1020.7
20260902163019 74 113 4.0 9.0 0.00 0.33 0.00 73 1020.6
20260902162537 74 113 3.0 7.0 0.00 0.33 0.00 74 1020.5
20260902162017 74 90 3.0 8.0 0.00 0.33 0.00 74 1020.5
20260902161518 74 113 2.0 4.0 0.00 0.33 0.00 74 1020.5
20260902161017 73 90 3.0 9.0 0.00 0.33 0.00 74 1020.5
20260902160517 73 113 4.0 7.0 0.00 0.34 0.00 74 1020.4
20260902160017 73 113 4.0 8.0 0.00 0.34 0.00 74 1020.6
20260902155519 73 135 2.0 6.0 0.00 0.35 0.00 74 1020.7
20260902155017 73 113 3.0 10.0 0.00 0.35 0.00 74 1020.7
20260902154518 73 135 3.0 7.0 0.00 0.35 0.00 74 1020.8
20260902154017 73 113 3.0 6.0 0.00 0.35 0.00 74 1020.8
20260902153515 73 135 3.0 8.0 0.00 0.35 0.00 74 1020.9
20260902153037 72 113 3.0 10.0 0.00 0.36 0.00 74 1020.7
20260902152518 72 90 2.0 8.0 0.00 0.36 0.00 74 1020.7
20260902152017 72 90 3.0 8.0 0.00 0.36 0.00 74 1020.7
20260902151517 72 90 2.0 6.0 0.00 0.36 0.00 75 1020.6
20260902151017 72 113 3.0 8.0 0.00 0.36 0.00 76 1020.6
20260902150557 71 113 5.0 9.0 0.00 0.36 0.00 76 1020.5
20260902150017 71 135 3.0 7.0 0.00 0.36 0.00 77 1020.5
20260902145517 71 135 4.0 8.0 0.00 0.36 0.00 77 1020.6
20260902145037 71 135 3.0 7.0 0.00 0.36 0.00 78 1020.7
20260902144519 70 113 3.0 7.0 0.00 0.36 0.00 78 1020.8
20260902144018 70 135 2.0 5.0 0.00 0.36 0.00 79 1020.9
20260902143517 70 113 3.0 7.0 0.00 0.36 0.00 79 1021.0
20260902143017 70 113 3.0 6.0 0.00 0.36 0.00 79 1021.0
20260902142517 70 113 1.0 6.0 0.00 0.36 0.00 80 1021.0
20260902142018 70 113 1.0 7.0 0.00 0.36 0.00 80 1021.0
20260902141517 70 113 2.0 4.0 0.00 0.36 0.00 80 1020.9
20260902141017 70 158 2.0 6.0 0.00 0.36 0.00 81 1020.8
20260902140517 70 135 2.0 7.0 0.00 0.36 0.00 81 1020.7
20260902140038 70 135 2.0 5.0 0.00 0.36 0.00 82 1020.7
20260902135537 70 135 1.0 5.0 0.00 0.36 0.00 83 1020.8
20260902135018 70 90 1.0 3.0 0.00 0.36 0.00 83 1020.8
20260902134518 69 90 1.0 4.0 0.00 0.36 0.00 83 1020.6
20260902134017 69 68 2.0 6.0 0.00 0.36 0.00 84 1020.6
20260902133517 69 90 2.0 8.0 0.00 0.36 0.00 85 1020.4
20260902133057 69 135 2.0 4.0 0.00 0.36 0.00 85 1020.2
20260902132538 69 90 2.0 6.0 0.00 0.36 0.00 86 1020.3
20260902132017 69 68 2.0 8.0 0.00 0.36 0.00 87 1020.4
20260902131517 69 68 2.0 7.0 0.00 0.36 0.00 87 1020.4
20260902131017 68 90 2.0 6.0 0.00 0.36 0.00 88 1020.3
20260902130537 68 90 3.0 8.0 0.00 0.36 0.00 88 1020.3
20260902130017 68 68 2.0 7.0 0.00 0.36 0.00 89 1020.2
20260902125517 68 113 4.0 8.0 0.00 0.37 0.00 90 1020.1
20260902125038 68 68 3.0 10.0 0.00 0.37 0.00 90 1020.2
20260902124517 67 90 3.0 8.0 0.00 0.37 0.00 91 1020.1
20260902124017 67 113 2.0 7.0 0.00 0.37 0.00 92 1020.0
20260902123518 67 68 3.0 8.0 0.00 0.37 0.00 92 1019.9
20260902123018 67 90 3.0 8.0 0.00 0.37 0.00 92 1019.9
20260902122517 67 68 4.0 9.0 0.00 0.37 0.00 92 1019.8
20260902122017 67 68 3.0 8.0 0.00 0.37 0.00 93 1019.9
20260902121518 67 113 3.0 9.0 0.00 0.37 0.00 93 1020.1
20260902121017 67 113 2.0 7.0 0.00 0.37 0.00 93 1020.0
20260902120517 67 68 3.0 8.0 0.00 0.37 0.00 93 1019.9
20260902120017 67 68 3.0 9.0 0.00 0.37 0.00 93 1020.0
20260902115517 67 68 3.0 10.0 0.00 0.37 0.00 93 1019.9
20260902115017 68 135 1.0 5.0 0.00 0.37 0.00 93 1019.8
20260902114517 68 68 3.0 8.0 0.00 0.37 0.00 93 1019.9
20260902114017 68 90 3.0 8.0 0.00 0.37 0.00 93 1019.8
20260902113517 68 90 3.0 7.0 0.00 0.37 0.00 93 1019.9
20260902113018 68 68 3.0 9.0 0.00 0.37 0.00 93 1019.9
20260902112518 68 68 2.0 6.0 0.00 0.37 0.00 93 1019.8
20260902112017 68 90 2.0 4.0 0.00 0.37 0.00 93 1019.7
20260902111537 68 90 2.0 5.0 0.00 0.37 0.00 93 1019.8
20260902111017 68 68 2.0 6.0 0.00 0.37 0.00 93 1019.8
20260902110516 68 45 2.0 9.0 0.00 0.37 0.00 93 1019.8
20260902110038 68 68 3.0 10.0 0.00 0.37 0.00 93 1019.8
20260902105516 68 68 3.0 10.0 0.00 0.37 0.00 93 1019.8
20260902105018 68 23 2.0 5.0 0.00 0.37 0.00 93 1019.8
20260902104637 68 45 1.0 7.0 0.00 0.37 0.00 93 1019.8
20260902104118 68 23 2.0 8.0 0.00 0.37 0.00 93 1019.7
20260902103517 68 68 2.0 5.0 0.00 0.37 0.00 93 1019.6
20260902103037 68 68 2.0 5.0 0.00 0.37 0.00 93 1019.5
20260902102517 68 23 2.0 4.0 0.00 0.37 0.00 93 1019.5
20260902102017 68 23 2.0 5.0 0.00 0.37 0.00 93 1019.5
20260902101517 68 68 2.0 6.0 0.00 0.37 0.00 93 1019.4
20260902101018 68 68 2.0 6.0 0.00 0.37 0.00 93 1019.4
20260902100518 68 23 2.0 7.0 0.00 0.37 0.00 93 1019.3
20260902100017 68 45 3.0 6.0 0.00 0.37 0.00 93 1019.3
20260902095517 68 23 3.0 7.0 0.00 0.37 0.00 92 1019.1
20260902095017 68 45 2.0 7.0 0.00 0.37 0.00 92 1019.1
20260902094517 68 68 2.0 5.0 0.00 0.37 0.00 92 1019.0
20260902094016 68 68 2.0 7.0 0.00 0.37 0.00 92 1019.0
20260902093537 69 68 3.0 9.0 0.00 0.37 0.00 92 1019.0
20260902093017 69 23 2.0 7.0 0.00 0.37 0.00 92 1019.1
20260902092518 69 68 2.0 5.0 0.00 0.37 0.00 92 1019.1
20260902092017 69 23 2.0 5.0 0.00 0.37 0.00 92 1019.1
20260902091517 69 45 2.0 5.0 0.00 0.37 0.00 92 1019.1
20260902091016 69 45 2.0 6.0 0.00 0.37 0.00 92 1019.1
20260902090518 69 45 2.0 6.0 0.00 0.37 0.00 92 1019.0
20260902090018 69 90 3.0 7.0 0.00 0.37 0.00 92 1018.8
20260902085516 68 68 3.0 9.0 0.00 0.37 0.00 92 1018.9
20260902085037 68 45 3.0 10.0 0.00 0.37 0.00 91 1018.9
20260902084517 68 90 2.0 8.0 0.00 0.37 0.00 91 1018.9
20260902084018 68 68 2.0 5.0 0.00 0.37 0.00 91 1018.9
20260902083517 68 68 3.0 10.0 0.00 0.37 0.00 92 1018.9
20260902083016 68 68 3.0 10.0 0.00 0.37 0.00 92 1018.9
20260902082518 68 68 2.0 7.0 0.00 0.37 0.00 92 1018.9
20260902082018 68 68 2.0 6.0 0.00 0.37 0.00 92 1018.9
20260902081516 68 68 2.0 7.0 0.00 0.37 0.00 92 1018.7
20260902081017 68 68 2.0 5.0 0.00 0.37 0.00 92 1018.7
20260902080516 68 0.0 3.0 0.00 0.37 0.00 92 1018.8
20260902080016 68 68 1.0 3.0 0.00 0.37 0.00 92 1018.6
20260902075516 68 68 2.0 6.0 0.00 0.37 0.00 92 1018.6
20260902075016 68 90 1.0 4.0 0.00 0.37 0.00 92 1018.6
20260902074516 68 23 1.0 4.0 0.00 0.37 0.00 92 1018.6
20260902074017 68 68 2.0 7.0 0.00 0.37 0.00 92 1018.6
20260902073516 68 23 2.0 4.0 0.00 0.37 0.00 92 1018.5
20260902073017 68 90 2.0 7.0 0.00 0.37 0.00 92 1018.4
20260902072517 68 68 2.0 7.0 0.00 0.37 0.00 92 1018.3
20260902072017 68 23 3.0 7.0 0.00 0.37 0.00 92 1018.4
20260902071517 68 113 1.0 5.0 0.00 0.37 0.00 92 1018.2
20260902071016 68 45 1.0 5.0 0.00 0.37 0.00 92 1018.2
20260902070539 68 113 1.0 6.0 0.00 0.37 0.00 92 1018.3
20260902070017 68 68 3.0 7.0 0.00 0.37 0.00 92 1018.1
20260902065517 68 68 2.0 8.0 0.00 0.37 0.00 92 1018.1
20260902065058 68 68 3.0 8.0 0.00 0.37 0.00 92 1018.1
20260902064517 68 68 1.0 4.0 0.00 0.37 0.00 92 1018.2
20260902064016 68 68 2.0 9.0 0.00 0.37 0.00 92 1018.2
20260902063518 68 68 2.0 8.0 0.00 0.37 0.00 92 1018.2
20260902063016 68 68 1.0 4.0 0.00 0.37 0.00 93 1018.3
20260902062516 68 68 1.0 7.0 0.00 0.37 0.00 93 1018.3
20260902062018 68 0.0 3.0 0.00 0.37 0.00 93 1018.3
20260902061516 68 23 1.0 5.0 0.00 0.37 0.00 93 1018.4
20260902061036 68 23 1.0 5.0 0.00 0.37 0.00 93 1018.5
20260902060516 68 45 2.0 6.0 0.00 0.37 0.00 93 1018.5
20260902060036 69 0.0 2.0 0.00 0.37 0.00 93 1018.4
20260902055517 69 68 3.0 8.0 0.00 0.37 0.00 93 1018.4
20260902055016 69 45 1.0 6.0 0.00 0.37 0.00 93 1018.6
20260902054536 69 113 2.0 7.0 0.00 0.37 0.00 93 1018.6
20260902054016 69 68 2.0 6.0 0.00 0.37 0.00 93 1018.7
20260902053518 69 23 3.0 7.0 0.00 0.37 0.00 93 1018.6
20260902053016 69 68 1.0 6.0 0.00 0.37 0.00 93 1018.6
20260902052517 69 135 1.0 4.0 0.00 0.37 0.00 93 1018.7
20260902052038 69 68 2.0 6.0 0.00 0.37 0.00 93 1018.6
20260902051516 69 68 2.0 6.0 0.00 0.37 0.00 94 1018.6
20260902051016 69 23 1.0 4.0 0.00 0.37 0.00 94 1018.6
20260902050536 69 68 1.0 4.0 0.00 0.37 0.00 94 1018.6
20260902050016 69 68 2.0 5.0 0.00 0.38 0.00 94 1018.6
20260902045516 69 135 1.0 4.0 0.00 0.38 0.00 94 1018.4
20260902045016 69 113 2.0 6.0 0.00 0.38 0.00 94 1018.4
20260902044516 69 113 2.0 6.0 0.00 0.38 0.00 94 1018.4
20260902044018 69 68 3.0 9.0 0.00 0.38 0.00 94 1018.3
20260902043538 69 68 3.0 8.0 0.00 0.38 0.00 94 1018.2
20260902043017 69 68 1.0 6.0 0.00 0.38 0.00 94 1018.1
20260902042516 69 68 1.0 4.0 0.00 0.38 0.00 94 1018.2
20260902042016 69 90 1.0 4.0 0.00 0.38 0.00 94 1018.1
20260902041516 69 23 2.0 5.0 0.00 0.38 0.00 94 1018.1
20260902041016 69 45 1.0 4.0 0.00 0.38 0.00 94 1018.2
20260902040516 69 45 1.0 3.0 0.00 0.38 0.00 94 1018.1
20260902040016 69 68 2.0 7.0 0.00 0.38 0.00 94 1018.2
20260902035516 70 113 2.0 8.0 0.00 0.38 0.38 94 1018.0
20260902035018 70 23 1.0 3.0 0.00 0.38 0.38 94 1017.8
20260902034517 70 68 1.0 3.0 0.00 0.38 0.38 94 1017.5
20260902034017 70 68 3.0 8.0 0.00 0.38 0.38 94 1017.4
20260902033517 70 68 4.0 9.0 0.00 0.38 0.38 94 1017.1
20260902033056 70 113 3.0 8.0 0.00 0.38 0.38 94 1017.1
20260902032516 70 90 3.0 9.0 0.00 0.38 0.38 94 1017.1
20260902032016 70 90 3.0 9.0 0.00 0.38 0.38 94 1017.1
20260902031516 70 68 3.0 8.0 0.00 0.38 0.38 94 1017.1
20260902031017 70 113 2.0 7.0 0.00 0.38 0.38 94 1017.2
20260902030536 70 90 2.0 8.0 0.00 0.38 0.38 94 1017.2
20260902030017 70 68 3.0 9.0 0.00 0.38 0.38 94 1017.2
20260902025516 70 68 3.0 10.0 0.00 0.38 0.38 94 1017.2
20260902025016 70 68 3.0 10.0 0.00 0.38 0.38 94 1017.2
20260902024518 70 68 4.0 13.0 0.00 0.38 0.38 94 1017.2
20260902024018 70 68 4.0 11.0 0.00 0.38 0.38 93 1017.2
20260902023518 70 68 3.0 10.0 0.00 0.38 0.38 93 1017.0
20260902023016 70 68 4.0 10.0 0.00 0.38 0.38 93 1017.0
20260902022518 70 68 3.0 9.0 0.00 0.38 0.38 94 1016.8
20260902022018 70 90 3.0 13.0 0.00 0.38 0.38 94 1016.8
20260902021538 70 68 5.0 13.0 0.00 0.38 0.38 93 1016.5
20260902021016 70 23 3.0 10.0 0.00 0.38 0.38 93 1016.4
20260902020516 70 68 5.0 13.0 0.00 0.38 0.38 93 1016.3
20260902020036 71 68 4.0 10.0 0.00 0.38 0.38 93 1016.4
20260902015536 71 68 5.0 11.0 0.00 0.38 0.38 93 1016.3
20260902015016 71 45 3.0 11.0 0.00 0.38 0.38 93 1016.0
20260902014518 71 68 3.0 9.0 0.00 0.38 0.38 93 1015.9
20260902014017 72 68 4.0 8.0 0.00 0.38 0.38 93 1015.6
20260902013516 72 45 2.0 9.0 0.00 0.38 0.38 93 1015.9
20260902013016 72 68 3.0 13.0 0.00 0.38 0.38 93 1015.7
20260902012517 73 45 4.0 13.0 0.00 0.38 0.38 93 1015.8
20260902012016 73 45 2.0 6.0 0.00 0.38 0.38 93 1015.5
20260902011516 73 23 4.0 12.0 0.00 0.38 0.38 93 1015.4
20260902011016 73 23 2.0 7.0 0.00 0.38 0.38 93 1015.1
20260902010516 73 68 3.0 9.0 0.00 0.38 0.38 93 1015.2
20260902010017 74 45 4.0 10.0 0.00 0.38 0.38 93 1015.2
20260902005516 74 68 2.0 8.0 0.00 0.38 0.38 93 1015.3
20260902005016 74 45 2.0 9.0 0.01 0.38 0.38 93 1015.1
20260902004516 75 68 4.0 11.0 0.01 0.38 0.38 93 1015.0
20260902004036 75 68 3.0 10.0 0.02 0.38 0.38 93 1014.9
20260902003517 75 68 2.0 9.0 0.02 0.38 0.38 93 1015.0
20260902003036 76 68 2.0 6.0 0.02 0.38 0.38 93 1014.9
20260902002556 76 90 2.0 8.0 0.03 0.38 0.38 93 1014.7
20260902002018 76 68 2.0 6.0 0.03 0.38 0.38 93 1014.8
20260902001516 76 135 2.0 4.0 0.03 0.38 0.38 93 1014.9
20260902001016 76 135 1.0 4.0 0.03 0.38 0.38 92 1014.9
20260902000516 76 0.0 3.0 0.03 0.38 0.38 92 1015.0